{"data":{"norad_id":55819,"intl_designator":"2023-029Z","name":"ONEWEB-0658","alt_names":[],"object_type":"PAYLOAD","status":"ACTIVE","operator":null,"country":"UK","launch_date":"2023-03-09","launch_site_code":"AFETR","launch_vehicle":null,"mission":null,"orbit_class":"UNKNOWN","rcs_meters":null,"size_class":null,"mass_kg":null,"dimensions":null,"purposes":["comms"],"wikipedia_slug":null,"has_3d_model":false,"image_url":null,"decayed_at":null,"tle_current":{"epoch":"2026-05-25T04:07:04.238112Z","epoch_age_seconds":60255,"freshness":"FRESH","line1":"1 55819U 23029Z   26145.17157683  .00000124  00000+0  27687-3 0  9999","line2":"2 55819  87.9158 309.5367 0001382  91.4917 268.6374 13.19726458155885","mean_motion":13.19726458,"eccentricity":0.0001382,"inclination_deg":87.9158,"raan_deg":309.5367,"arg_perigee_deg":91.4917,"mean_anomaly_deg":268.6374,"bstar":0.00027687,"rev_number":15588,"period_min":109.11352055351,"perigee_km":1184.719649802,"apogee_km":1186.8103123096,"semimajor_km":7563.9019810558,"source":"CELESTRAK","updated_at":"2026-05-25T13:38:22.695305Z"}}}